This is the latest recevied weather packets stored in our database for station/object HB9TJM-8. If no packets are shown the sender has not sent any weather packets the latest 10 day(s).
| Time | Temp. | Humidity | Pressure | Rain* | Wind** | Luminosity | Snow |
|---|---|---|---|---|---|---|---|
| 1777871815 | 8.89° C | 89% | 1015.4 hPa | 0 mm | - | 28 W/m² | - |
| 1777871508 | 8.89° C | 85% | 1015.3 hPa | 0 mm | - | 25 W/m² | - |
| 1777871200 | 8.89° C | 86% | 1014.6 hPa | 0 mm | - | 24 W/m² | - |
| 1777870893 | 8.89° C | 84% | 1015.3 hPa | 0 mm | - | 21 W/m² | - |
| 1777870585 | 9.44° C | 85% | 1015.6 hPa | 0 mm | - | 17 W/m² | - |
| 1777870278 | 8.89° C | 85% | 1015.5 hPa | 0 mm | - | 14 W/m² | - |
| 1777869970 | 8.89° C | 85% | 1015.1 hPa | 0 mm | - | 10 W/m² | - |
| 1777869663 | 9.44° C | 83% | 1015.3 hPa | 0 mm | - | 6 W/m² | - |
| 1777869356 | 9.44° C | 82% | 1015.2 hPa | 0.25 mm | - | 4 W/m² | - |
| 1777869049 | 9.44° C | 82% | 1015.3 hPa | 0.25 mm | - | 3 W/m² | - |
| 1777868742 | 9.44° C | 83% | 1015.1 hPa | 0.25 mm | - | 2 W/m² | - |
| 1777868435 | 9.44° C | 82% | 1014.9 hPa | 0.25 mm | - | 1 W/m² | - |
| 1777868127 | 9.44° C | 84% | 1015.2 hPa | 0.25 mm | - | 0 W/m² | - |
| 1777867820 | 8.89° C | 85% | 1015.3 hPa | 0.25 mm | - | 0 W/m² | - |
| 1777867512 | 8.89° C | 86% | 1014.8 hPa | 0.25 mm | - | 0 W/m² | - |
| 1777867205 | 8.89° C | 86% | 1015.5 hPa | 0.51 mm | - | 0 W/m² | - |
| 1777866590 | 8.89° C | 89% | 1015.5 hPa | 0.51 mm | - | 0 W/m² | - |
| 1777866283 | 8.89° C | 89% | 1015.2 hPa | 0.51 mm | - | 0 W/m² | - |
| 1777865976 | 8.89° C | 88% | 1015.7 hPa | 0.51 mm | - | 0 W/m² | - |
| 1777865669 | 8.89° C | 87% | 1015.7 hPa | 0.51 mm | - | 0 W/m² | - |
| 1777865362 | 8.89° C | 88% | 1015.8 hPa | 0.51 mm | - | 0 W/m² | - |
| 1777865054 | 8.89° C | 88% | 1015.5 hPa | 0.51 mm | - | 0 W/m² | - |
| 1777864746 | 8.89° C | 87% | 1016 hPa | 0.51 mm | - | 0 W/m² | - |
| 1777864439 | 8.89° C | 85% | 1015.6 hPa | 0.51 mm | - | 0 W/m² | - |
| 1777864132 | 8.89° C | 85% | 1015.8 hPa | 0.25 mm | - | 0 W/m² | - |
* Rain latest hour (hover to see other rain measurements)
** Current wind speed in m/s (hover to see current wind gust speed)